User: anonymous   Login
Location: Natural Bridges National Monument
(37.6093°N, 109.9767°W)
Time: 00:49:26
(UTC-06:00)
Language:

Cosmos 1727 Rocket - Orbit

View from above orbital plane
View from above orbital plane
View from above satellite
View from above satellite

Ground track
Ground track

The orbit data is extracted from the following two-line orbital elements,

1 16511U 86008B   16145.96042381 -.00000039 +00000-0 -55871-4 0  9990
2 16511 082.9425 147.8329 0022813 288.5429 130.1402 13.75807366522639
Epoch (UTC): 24 May 2016 23:03:00
Eccentricity: 0.0022813
inclination: 82.9425°
perigee height: 962 km
apogee height: 995 km
right ascension of ascending node: 147.8329°
argument of perigee: 288.5429°
revolutions per day: 13.75807366
mean anomaly at epoch: 130.1402°
orbit number at epoch: 52263

The dashed part of the orbit path shows where the satellite is in the earth's shadow,  

DLR